Regional Weather Roundup
Issued by NWS

Home | Current Version | Previous Version | Text Only | Print | Product List | Glossary Off
Versions: 1 2 3 4 5 6 7 8 9 10 11 12 13 14 15 16 17 18 19 20 21 22 23 24 25 26 27 28 29 30 31 32 33 34 35 36 37 38 39 40 41 42 43 44 45 46 47 48 49 50

000
ASUS43 KTOP 010208
RWRKS

WEATHER ROUNDUP FOR KANSAS
NATIONAL WEATHER SERVICE GOODLAND KS
900 PM CDT FRI SEP 30 2016

NOTE:  "FAIR" INDICATES FEW OR NO CLOUDS BELOW 12,000 FEET WITH NO
SIGNIFICANT WEATHER AND/OR OBSTRUCTIONS TO VISIBILITY.

KSZ001>006-013>018-027>032-041>047-010300-
NORTHWEST KANSAS

CITY           SKY/WX    TMP DP  RH WIND       PRES   REMARKS
GOODLAND       PTCLDY    63  46  54 SE9       30.13R
HAYS           PTCLDY    61  41  48 E8        30.14R
HILL CITY      CLOUDY    57  49  74 E7        30.15S
RUSSELL        PTCLDY    60  47  61 E8        30.13R
$$

KSZ061>065-074>080-084>089-010300-
SOUTHWEST KANSAS

CITY           SKY/WX    TMP DP  RH WIND       PRES   REMARKS
DODGE CITY     CLEAR     62  46  55 E12       30.12S
ELKHART          N/A     66  45  46 SE16        N/A
GARDEN CITY    CLOUDY    66  47  50 SE15      30.10R
GREAT BEND     PTCLDY    61  43  51 SE7       30.14R
LIBERAL        CLOUDY    68  46  45 SE12      30.10R
PRATT          CLEAR     60  44  55 SE5       30.14S
$$

KSZ066>073-081>083-090>101-010300-
SOUTHEAST KANSAS

CITY           SKY/WX    TMP DP  RH WIND       PRES   REMARKS
CHANUTE        MOCLDY    59  54  83 CALM      30.11S
COFFEYVILLE    PTCLDY    60  53  77 CALM      30.11S
HUTCHINSON     MOCLDY    54  51  90 CALM      30.14R
MEDICINE LODGE   N/A     62  47  57 E6        30.12S
NEWTON         PTCLDY    61  51  70 CALM      30.14S
PARSONS        CLOUDY    56  53  90 CALM      30.12S
WICHITA INTL   MOCLDY    64  51  62 CALM      30.12S
WICHITA JABRA  MOCLDY    62  51  67 CALM      30.12S
WICHITA MCCONL MOCLDY    66  48  52 CALM      30.12S
WINFIELD       PTCLDY    64  52  64 CALM      30.13S
$$

KSZ007>012-019>026-033>040-048>060-102>105-010300-
NORTHEAST KANSAS

CITY           SKY/WX    TMP DP  RH WIND       PRES   REMARKS
CONCORDIA      HAZE      59  49  69 S8        30.14R VSB 1
EMPORIA        PTCLDY    60  52  74 CALM      30.12S
LAWRENCE       CLEAR     55  52  89 NW3       30.12R
MANHATTAN      MOCLDY    57  51  80 CALM      30.13R
MARYSVILLE     CLOUDY    59  46  63 CALM      30.13S
OLATHE IND     CLEAR     60  51  72 NE6       30.12S
OLATHE EXE     CLEAR     61  51  70 NE6       30.12S
SALINA         PTCLDY    64  50  60 CALM      30.14R
TOPEKA BILLARD CLOUDY    58  53  84 CALM      30.12R
TOPEKA FORBES  PTCLDY    59  52  77 CALM      30.12S
$$



USA.gov is the U.S. government's official web portal to all federal, state and local government web resources and services.